Regional Weather Roundup
Issued by NWS

Home | Current Version | Previous Version | Text Only | Print | Product List | Glossary On
Versions: 1 2 3 4 5 6 7 8 9 10 11 12 13 14 15 16 17 18 19 20 21 22 23 24 25 26 27 28 29 30 31 32 33 34 35 36 37 38 39 40 41 42 43 44 45 46 47 48 49 50
000
ASUS43 KBIS 061320
RWRND

NORTH DAKOTA REGIONAL WEATHER ROUNDUP
NATIONAL WEATHER SERVICE BISMARCK ND
700 AM CST FRI MAR 06 2015

NOTE: "FAIR" INDICATES FEW OR NO CLOUDS BELOW 12,000 FEET WITH NO
SIGNIFICANT WEATHER AND/OR OBSTRUCTIONS TO VISIBILITY.


NDZ001>003-009>011-017-061400-
NORTHWEST NORTH DAKOTA

CITY           SKY/WX    TMP DP  RH WIND       PRES   REMARKS
WILLISTON      PTCLDY    17  13  84 S3        30.07R
MINOT          PTCLDY    16  10  77 SW10      30.05R WCI   4
MINOT AFB      PTCLDY    14  11  91 W10       30.04R WCI   1
$$

NDZ018>021-031>035-040>046-061400-
SOUTHWEST NORTH DAKOTA

CITY           SKY/WX    TMP DP  RH WIND       PRES   REMARKS
BISMARCK       CLEAR     13  10  88 NW3       30.09R
DICKINSON      CLEAR     20  13  74 W7        30.04R WCI  11
GARRISON         N/A     16  11  80 VRB3      30.05S
HETTINGER ARPT CLEAR     19  11  70 CALM      30.08R
$$

NDZ004>008-012>016-024-026-027-054-061400-
NORTHEAST NORTH DAKOTA

CITY           SKY/WX    TMP DP  RH WIND       PRES   REMARKS
GRAND FORKS    CLEAR      9   4  80 W9        30.03R WCI  -4
GRND FRKS AFB  CLEAR     11   6  77 NW7       30.03R WCI   1
DEVILS LAKE    PTCLDY    10   3  72 W12       30.03S WCI  -4
$$

NDZ022-023-025-028>030-036>039-047>053-061400-
SOUTHEAST NORTH DAKOTA

CITY           SKY/WX    TMP DP  RH WIND       PRES   REMARKS
FARGO          CLEAR     14   8  77 NW8       30.04R WCI   3
JAMESTOWN      CLEAR     14   9  80 NW7       30.03R WCI   4
$$




USA.gov is the U.S. government's official web portal to all federal, state and local government web resources and services.